SL-14 DEB, 47092

Orbit data source: Space-Track

SL-14 DEB, 47092 is space debris in LEO originally from a launch on Thu, 15 Aug 1991 UTC launched from the Plesetsk Missile And Space Complex (PKMTR). Debris objects in space refer to the collection of defunct objects orbiting the Earth. Examples of debris include non-operational satellites, rocket bodies, and fragments generated from explosions, collisions, or faulty payload assembly.

Loading next visibility...
Identifier
47092, 1991-056DS
Orbit
LEO
Country
Flag of CISCIS
Related business
Manufacturer
Unknown
Mission
Spacecraft
Bus & Motor
Unknown
Mass
Unknown
Launch date (UTC)
1991-08-15 (34 years ago)
Launch vehicle
Unknown
Launch site
Plesetsk Missile And Space Complex (PKMTR)
Object type
Payload
Rocket body
Debris
Shape & HBR
Unknown shape, 0.1 m
Radar Cross Section
Small (<0.1 m²)

Expand to show TLE details & history
Last TLE update: 1 day ago

TLE from 1 day ago
0 SL-14 DEB
1 47092U 91056DS  26037.32730640  .00001977  00000-0  34207-2 0  9998
2 47092  82.5681 176.3227 0097004 181.8340 178.2455 13.41690254256782
Epoch: 2026-02-06T07:51Z
TLE epoch observation values (Epoch: 2026-02-06T07:51:19.272Z)
Latitude
-0.00008°
Longitude
-77.97438°
Altitude
1,178.383 km
Speed
7.229 km/s
True Right ascension
11h 45m 17s
True Declination
0° 00' 00"
Sunlit
Object was in full shadow at epoch
Visualization orbit readout
Latitude
Unknown
Longitude
Unknown
Altitude
Unknown
Speed
Unknown
Apparent Right ascension
Unknown
Apparent Declination
Unknown
Sunlit
N/A
Visualization observer readout
Local Sidereal Time
13:52:31
Azimuth
Unknown
Elevation
Unknown
Doppler factor
Unknown
Orbital elements
Apogee altitude
1,172.742 km
Perigee altitude
1,027.656 km
Semi-major axis
7,478.336 km
Eccentricity
0.0097
Inclination
82.5681°
RAAN
176.3227°
Arg. of periapsis
181.834°
True anomaly
178.27913°
Mean anomaly
178.2455°
Eccentric anomaly
178.26235°
Mean motion
3.35611 °/min
Orbital period
107.27 mins
BSTAR
0.0034207
Loading maneuver chart data...
Computing Atmospheric mass density...
Loading historical data...
Loading historical data...
Loading historical data...
Loading historical data...
Loading historical data...
Loading historical data...
Loading historical data...

Documentation

Showing up to 5 results
|